This is the latest recevied weather packets stored in our database for station/object HP1CDW-13. If no packets are shown the sender has not sent any weather packets the latest 10 day(s).
| Time | Temp. | Humidity | Pressure | Rain* | Wind** | Luminosity | Snow |
|---|---|---|---|---|---|---|---|
| 1778019890 | 27.22° C | 94% | 1012.5 hPa | 1.02 mm | - | - | - |
| 1778019290 | 27.78° C | 93% | 1012.3 hPa | 0.25 mm | - | - | - |
| 1778018690 | 27.78° C | 93% | 1012.6 hPa | 0 mm | - | - | - |
| 1778018090 | 27.78° C | 92% | 1012.4 hPa | 0 mm | - | - | - |
| 1778017490 | 28.33° C | 91% | 1012.4 hPa | 0 mm | - | - | - |
| 1778016890 | 28.33° C | 89% | 1012.3 hPa | 0 mm | - | - | - |
| 1778016290 | 28.89° C | 89% | 1012.4 hPa | 0 mm | - | - | - |
| 1778015690 | 28.89° C | 89% | 1012.2 hPa | 0 mm | - | - | - |
| 1778015090 | 28.89° C | 88% | 1012.3 hPa | 0 mm | - | - | - |
| 1778014490 | 28.89° C | 90% | 1012.4 hPa | 0 mm | - | - | - |
| 1778013890 | 28.33° C | 91% | 1012.5 hPa | 0 mm | - | - | - |
| 1778013290 | 28.33° C | 92% | 1012.4 hPa | 0 mm | - | - | - |
| 1778012690 | 28.33° C | 93% | 1012.2 hPa | 0 mm | - | - | - |
| 1778012090 | 27.78° C | 94% | 1012.6 hPa | 0 mm | - | - | - |
| 1778011490 | 27.78° C | 95% | 1012.3 hPa | 0 mm | - | - | - |
| 1778010890 | 27.78° C | 94% | 1012.4 hPa | 0 mm | - | - | - |
| 1778010290 | 27.78° C | 93% | 1012.6 hPa | 0 mm | - | - | - |
| 1778009690 | 27.22° C | 95% | 1012.8 hPa | 0.25 mm | - | - | - |
| 1778009090 | 27.22° C | 96% | 1013.1 hPa | 1.27 mm | - | - | - |
| 1778008490 | 27.22° C | 96% | 1013.2 hPa | 2.79 mm | - | - | - |
| 1778007890 | 26.67° C | 97% | 1013.5 hPa | 6.1 mm | - | - | - |
| 1778007290 | 26.67° C | 97% | 1013.6 hPa | 9.65 mm | - | - | - |
| 1778006690 | 26.67° C | 97% | 1013.2 hPa | 9.65 mm | - | - | - |
| 1778006090 | 26.67° C | 97% | 1013.4 hPa | 9.91 mm | - | - | - |
| 1778005490 | 26.67° C | 96% | 1013.7 hPa | 9.14 mm | - | - | - |
* Rain latest hour (hover to see other rain measurements)
** Current wind speed in m/s (hover to see current wind gust speed)